User: anonymous   Login
Location: Newark
(37.7733°N, 97.7642°W)
Time: 07:01:15
(UTC+00:00)
Language:

ISS - Orbit

View from above orbital plane
View from above orbital plane
View from above satellite
View from above satellite

Ground track
Ground track

The orbit data is extracted from the following two-line orbital elements,

1 25544U 98067A   19238.27291114  .00016717  00000-0  10270-3 0  9063
2 25544  51.6438  13.6013 0007988 328.7983  31.2693 15.50440746 26126
Epoch (UTC): 26 August 2019 06:32:59
Eccentricity: 0.0007988
inclination: 51.6438°
perigee height: 410 km
apogee height: 421 km
right ascension of ascending node: 13.6013°
argument of perigee: 328.7983°
revolutions per day: 15.50440746
mean anomaly at epoch: 31.2693°
orbit number at epoch: 2612

The dashed part of the orbit path shows where the satellite is in the earth's shadow,  

DLR